Location: Unspecified
(48.7670°N, 0.0000°E)
Time: 05:09:34
(UTC+00:00)

Courier 1B - Pass Details

Date: 21 June 2019
Orbit: 963 x 1209 km, 28.3° (Epoch: 21 July)

Event Time Altitude Azimuth Distance (km) Brightness Sun altitude
Rises 21:14:24 0° 238° (WSW) 3,974 10.8 -8.7°
Reaches altitude 10° 21:18:39 10° 216° (SW) 3,060 9.9 -9.1°
Maximum altitude 21:22:28 15° 185° (S) 2,755 9.4 -9.5°
Enters shadow 21:25:56 11° 158° (SSE) 3,051 9.5 -9.8°
Drops below altitude 10° 21:26:21 10° 155° (SSE) 3,119 - -9.9°
Sets 21:30:46 0° 133° (SE) 4,100 - -10.3°
